{"data":{"norad_id":40938,"intl_designator":"2015-053A","name":"BEIDOU-3S IGSO-2S (C56)","alt_names":[],"object_type":"PAYLOAD","status":"INACTIVE","operator":null,"country":"PRC","launch_date":"2015-09-29","launch_site_code":"XICLF","launch_vehicle":null,"mission":null,"orbit_class":"UNKNOWN","rcs_meters":61.2179,"size_class":null,"mass_kg":null,"dimensions":null,"purposes":["comms","nav"],"wikipedia_slug":null,"has_3d_model":false,"image_url":null,"decayed_at":null,"tle_current":{"epoch":"2026-05-24T19:07:21.692640Z","epoch_age_seconds":95775,"freshness":"FRESH","line1":"1 40938U 15053A   26144.79677885 -.00000178  00000+0  00000+0 0  9997","line2":"2 40938  49.2576 259.0593 0064721 191.3362 175.0261  1.00265134 39126","mean_motion":1.00265134,"eccentricity":0.0064721,"inclination_deg":49.2576,"raan_deg":259.0593,"arg_perigee_deg":191.3362,"mean_anomaly_deg":175.0261,"bstar":0,"rev_number":3912,"period_min":1436.1921662619,"perigee_km":35515.553151264,"apogee_km":36061.366010728,"semimajor_km":42166.596580996,"source":"CELESTRAK","updated_at":"2026-05-25T13:38:24.214795Z"}}}